STARLINK-1256 (45401 NORAD) Tracking and Keplerian Element Data

This shows tracking and keplerian element data for the satellite.

Feedback or suggestion? Click here.




ElementValue
Catalog45401
NameSTARLINK-1256
Epoch Orbit179
Epoch Day148.83334491
Epoch Year2020
RAAN269.9641
Inclination52.9986
Eccentricity0.0001406
Argument of Perigee52.9369
Mean Anonmoly338.5758
Mean Motion15.62756253
Decay Rate0.00044068
L11 45401U 20019AT 20148.83334491 .00044068 00000-0 48442-3 0 9993
L22 45401 52.9986 269.9641 0001406 52.9369 338.5758 15.62756253 1795

Live tracking and technical data element details for STARLINK-1256 (NORAD 45401). STARLINK-1256 can be tracked NOW for your location showing map with azimuth and elevation plus other details from your city location.

Track the satellite on the map from your city or location and see movement details for azimuth, elevation, latitude, longitude, range, height, and movement on the map or in text.







IsCatalogInMostPopularTable: catalog: 45401, numindb: 18
Update: records affected: 1



GetName: 45401 STARLINK-1256

Hit Count: updated at: Sat, 30 May 2020 15:50:34 GMT